Regional Weather Roundup
Issued by NWS

Home | Current Version | Previous Version | Text Only | Print | Product List | Glossary Off
Versions: 1 2 3 4 5 6 7 8 9 10 11 12 13 14 15 16 17 18 19 20 21 22 23 24 25 26 27 28 29 30 31 32 33 34 35 36 37 38 39 40 41 42 43 44 45 46 47 48 49 50

000
ASUS45 KABQ 272001
RWRNM
WEATHER ROUNDUP FOR NEW MEXICO
NATIONAL WEATHER SERVICE ALBUQUERQUE NM
100 PM MST TUE JAN 27 2015

NOTE: "FAIR" MEANS FEW OR NO CLOUDS BELOW 12,000 FEET AGL WITH NO
       SIGNIFICANT WEATHER OR OBSTRUCTIONS TO VISION.

      THIS PRODUCT IS RELEASED AS TWO VERSIONS.  ONE VERSION NEAR
      THE TOP OF THE HOUR CONTAINING PRELIMINARY DATA FROM ALBUQUERQUE
      AND OTHER STATIONS.  A FINAL VERSION WITH ADDITIONAL DATA IS
      ISSUED ABOUT 10 MINUTES AFTER THE HOUR.

NMZ501-503-504-510>518-272100-
NORTHWEST PLATEAU/NORTHCENTRAL MOUNTAINS

CITY           SKY/WX    TMP DP  RH WIND       PRES   REMARKS
FARMINGTON     CLOUDY    51  27  39 N3        30.31F
SANTA FE       SUNNY     58  25  28 W13       30.30F
TAOS           SUNNY     52  27  37 CALM      30.33F

$$
NMZ402-403-502-505>509-272100-
WESTCENTRAL MOUNTAINS/SOUTHWEST MOUNTAINS

CITY           SKY/WX    TMP DP  RH WIND       PRES   REMARKS
GALLUP         MOSUNNY   57  33  40 W7        30.33F
SILVER CITY    SUNNY     63  37  39 S6        30.31F

$$
NMZ407-409-411-412-272100-
SOUTHERN DESERTS

CITY           SKY/WX    TMP DP  RH WIND       PRES   REMARKS
DEMING         SUNNY     64  37  36 CALM      30.27F
HOLLOMAN AFB   SUNNY     63  33  32 S2        30.25F
ALAMOGORDO     SUNNY     63  28  27 SE3       30.27F
T OR C         SUNNY     62  35  36 SE7       30.27F

$$
NMZ519>523-272100-
CENTRAL VALLEYS/CENTRAL HIGHLANDS

CITY           SKY/WX    TMP DP  RH WIND       PRES   REMARKS
ALBUQUERQUE    PTSUNNY   55  28  35 CALM      30.31F
DOUBLE EAGLE   PTSUNNY   55  28  35 CALM      30.31F
CLINES CORNERS SUNNY     55  28  35 W16       30.29F
BELEN          FAIR      54  30  40 CALM      30.30F
SOCORRO        NOT AVBL

$$
NMZ524>526-539-540-272100-
SOUTHCENTRAL MOUNTAINS

CITY           SKY/WX    TMP DP  RH WIND       PRES   REMARKS
RUIDOSO        NOT AVBL

$$
NMZ527>531-272100-
NORTHEAST HIGHLANDS/NORTHEAST PLAINS

CITY           SKY/WX    TMP DP  RH WIND       PRES   REMARKS
LAS VEGAS      SUNNY     63  24  22 S12       30.23F
RATON          MOSUNNY   59  26  28 S12       30.21F
CLAYTON        MOSUNNY   66  29  24 SW17      30.16F

$$
NMZ532>537-272100-
EASTCENTRAL PLAINS

CITY           SKY/WX    TMP DP  RH WIND       PRES   REMARKS
TUCUMCARI      MOSUNNY   67  26  21 SW14      30.18F
CANNON AFB     MOSUNNY   67  31  26 SW10      30.21F
CLOVIS AIRPORT SUNNY     66  32  28 SW13      30.21F

$$
NMZ028-029-538-272100-
SOUTHEAST PLAINS

CITY           SKY/WX    TMP DP  RH WIND       PRES   REMARKS
ROSWELL        SUNNY     64  33  31 VRB5      30.21F
ARTESIA        SUNNY     63  36  36 E3        30.22F
CARLSBAD       SUNNY     69  33  26 VRB3      30.20F
HOBBS          SUNNY     68  27  21 S3        30.23F


$$



USA.gov is the U.S. government's official web portal to all federal, state and local government web resources and services.